Погода в Калининске

Россия / Саратовская область     51°29′58″N   44°29′07″E
темп.,
°C
ветер,
м/с
пор.,
м/с
влажн.,
%
обл.,
%
осадки,
мм/ч
давл.,
гПа
погр.,
м
19 мая, ср
ср1901:00+17вюв335924 0.0 100928
04:00+15ююв36599 0.0 100990
07:00+16ююз468982 0.0 1010247
10:00+20зюз33671 0.0 1011698
13:00+24вюв45490 0.0 10101264
16:00+27юв693999 0.0 10091836
19:00+23ю4959100 0.0 1009278
22:00+15зюз81487100 0.9 1011490
20 мая, чт
чт2001:00+14ююз2792100 0.8 1011319
04:00+13юз2492100 1.0 1011271
07:00+13ю3688100 0.0 1011382
10:00+16ююз567097 0.1 10101032
13:00+18ююз676379 0.6 10101355
16:00+18ююз686178 1.4 10101504
19:00+17юз687210 0.6 1010884
22:00+13ююз388928 0.7 1012195
21 мая, пт
пт2101:00+12юз4109255 0.1 1013287
04:00+11ююз38964 0.1 1014184
07:00+13юз510880 0.0 1015383
10:00+18юз696613 0.0 10161177
13:00+21юз6954100 0.0 10171579
16:00+22зюз575229 0.0 10161647
19:00+21ююз1265100 0.1 1016127
22:00+18ююв2271100 0.2 101820
22 мая, сб
сб2201:00+17всв3480100 0.1 101883
04:00+16св6118293 0.1 1017304
07:00+17в6128255 0.0 1017418
10:00+21вюв6959100 0.0 1016560
13:00+26ююв7104387 0.0 10151486
16:00+28ю5940100 0.0 10142141
19:00+27ююв1153100 0.0 101311
22:00+21всв226377 0.0 101420
23 мая, вс
вс2301:00+19всв226278 0.0 101317
04:00+18вюв335687 0.0 101322
07:00+19вюв3757100 0.0 1014112
10:00+24юв61149100 0.0 1013445
13:00+28юв81143100 0.0 1013936
16:00+30юв7124265 0.0 10111377
19:00+27вюв5125297 0.0 1008316
22:00+23вюв6154882 0.0 1008253